NSS-12

Last updated on Sun Dec 14 2025 00:02:49 GMT+0000 (Coordinated Universal Time)

1 36032U 09058A 25347.14365463 .00000085 00000+0 00000+0 0 9990 2 36032 0.0918 72.9885 0004704 189.6823 288.1263 1.00272012 59059
UTC large
Height (km)
Speed (km/s)
/
Latitude / Longitude
Inclination (degrees)
Orbital Period (minutes)
Azimuth
Elevation
Range (km)
Doppler Factor

Next 0 passes for location: London (51.5072 / 0.1276)

Sorry there are no passes over London.